Regional Weather Roundup
Issued by NWS

Home | Current Version | Previous Version | Graphics & Text | Print | Product List | Glossary On
Versions: 1 2 3 4 5 6 7 8 9 10 11 12 13 14 15 16 17 18 19 20 21 22 23 24 25 26 27 28 29 30 31 32 33 34 35 36 37 38 39 40 41 42 43 44 45 46 47 48 49 50
000
ASUS43 KOAX 031510
RWRNE

WEATHER ROUNDUP FOR NEBRASKA
NATIONAL WEATHER SERVICE OMAHA NE
1000 AM CDT MON AUG 03 2015

NOTES: SATELLITE DATA IS BEING USED TO AUGMENT CLOUD COVER ABOVE
       12000 FEET.
       "FAIR" INDICATES FEW OR NO CLOUDS BELOW 12,000 FEET WITH NO
       SIGNIFICANT WEATHER AND/OR OBSTRUCTIONS TO VISIBILITY.

  * THESE STATIONS DO NOT REPORT WEATHER SUCH AS RAIN...SNOW OR FOG.

NEZ001>004-019>022-054>056-031600-
NEBRASKA PANHANDLE

CITY           SKY/WX    TMP DP  RH WIND       PRES   REMARKS
SCOTTSBLUFF    PTSUNNY   69  58  67 E7        30.04R
ALLIANCE       MOSUNNY   72  59  63 SE14      30.04R
CHADRON        MOSUNNY   70  59  68 E5        30.02S
KIMBALL        PTSUNNY   76  53  43 CALM      30.06R
SIDNEY         MOSUNNY   74  56  53 E6        30.06R
$$

NEZ057>060-069>072-079>082-031600-
SOUTHWEST NEBRASKA

CITY           SKY/WX    TMP DP  RH WIND       PRES   REMARKS
NORTH PLATTE   MOSUNNY   71  62  73 SE13      30.02F
IMPERIAL       MOSUNNY   73  58  59 SE12      30.02S
LEXINGTON      MOSUNNY   74  64  73 E13       30.02F
MCCOOK         SUNNY     75  64  68 E10       30.00S
OGALLALA       MOSUNNY   73  63  69 SE10      30.03S
$$

NEZ005>010-023>029-035>040-094-031600-
NORTH CENTRAL NEBRASKA

CITY           SKY/WX    TMP DP  RH WIND       PRES   REMARKS
AINSWORTH      SUNNY     73  60  63 SE9       30.04R
BROKEN BOW     MOSUNNY   72  61  68 SE12G18   30.03S
O`NEILL        CLOUDY    71  62  73 S8        30.02R
ORD            MOSUNNY   72  59  63 SE9       29.98F
THEDFORD       PTSUNNY   74  60  63 SE13      30.05S
$$

NEZ041-046>049-061>064-073>077-083>087-031600-
SOUTH CENTRAL NEBRASKA

CITY           SKY/WX    TMP DP  RH WIND       PRES   REMARKS
GRAND ISLAND   MOSUNNY   69  62  78 E12       30.03F
AURORA           N/A     71  65  81 E10       30.02F
HASTINGS       MOSUNNY   73  63  70 NE14      30.01R
HEBRON         CLOUDY    72  67  84 NE12      29.98R
HOLDREGE       CLOUDY    72  65  80 E15       30.02R
KEARNEY *      MOSUNNY   73  63  68 NE16G22   30.02F
YORK           PTSUNNY   72  63  73 NE12      30.03S
$$

NEZ011>018-030>034-042>045-031600-
NORTHEAST NEBRASKA

CITY           SKY/WX    TMP DP  RH WIND       PRES   REMARKS
NORFOLK        CLOUDY    68  62  81 E3        29.99F
ALBION         CLOUDY    64  59  83 SE14      29.95F
BLAIR          PTSUNNY   72  60  67 CALM      30.01R
COLUMBUS *     CLOUDY    68  57  68 SE5       30.00F
FREMONT        CLOUDY    72  62  69 NE3       30.02R
TEKAMAH        PTSUNNY   72  64  76 CALM      30.00R
WAYNE          CLOUDY    71  62  73 SE3       30.00F
$$

NEZ050>053-065>068-078-088>093-031600-
SOUTHEAST NEBRASKA

CITY           SKY/WX    TMP DP  RH WIND       PRES   REMARKS
LINCOLN        LGT RAIN  72  62  71 VRB5      30.00R
OMAHA EPPLEY   PTSUNNY   74  61  63 E3        30.01R
BEATRICE       CLOUDY    73  66  81 NE12      29.99R
FALLS CITY     CLOUDY    75  66  73 E8        29.95R
NEBRASKA CITY  CLOUDY    72  59  64 E5        30.00R
PLATTSMOUTH    PTSUNNY   72  62  70 E5        30.00S
$$

NEZ044-045-051>053-067-031600-
OMAHA AREA

CITY           SKY/WX    TMP DP  RH WIND       PRES   REMARKS
OMAHA EPPLEY   PTSUNNY   74  61  63 E3        30.01R
BLAIR          PTSUNNY   72  60  67 CALM      30.01R
FREMONT        CLOUDY    72  62  69 NE3       30.02R
MILLARD        PTSUNNY   74  61  64 E3        30.01R
OFFUTT AFB     PTSUNNY   73  62  68 SE5       30.00R
PLATTSMOUTH    PTSUNNY   72  62  70 E5        30.00S
WAHOO          LGT RAIN  69  65  90 CALM      30.02R
$$


USA.gov is the U.S. government's official web portal to all federal, state and local government web resources and services.